User: anonymous   Login
Location: Chenango Forks
(42.2242°N, 75.8278°W)
Time: 14:35:03
(UTC-04:00)
Language:

Coronas F rocket - Orbit

View from above orbital plane
View from above orbital plane
View from above satellite
View from above satellite

Ground track
Ground track

The orbit data is extracted from the following two-line orbital elements,

1 26874U 01032B   16274.20515381  .00045731  00000-0  17750-3 0  9991
2 26874  82.4601 166.4027 0007082 137.8880 222.2936 15.86933669852263
Epoch (UTC): 30 September 2016 04:55:25
Eccentricity: 0.0007082
inclination: 82.4601°
perigee height: 306 km
apogee height: 315 km
right ascension of ascending node: 166.4027°
argument of perigee: 137.8880°
revolutions per day: 15.86933669
mean anomaly at epoch: 222.2936°
orbit number at epoch: 85226

The dashed part of the orbit path shows where the satellite is in the earth's shadow,  

DLR